Location: *
(44.1392°N, 4.8079°E)
Time: 06:47:05
(UTC+00:00)

Resurs 1-4 Rocket - Pass Details

Date: 21 June 2021
Orbit: 800 x 813 km, 98.6° (Epoch: 31 July)

Event Time Altitude Azimuth Distance (km) Brightness Sun altitude
Rises 02:29:44 0° 2° (N) 3,344 6.3 -12.4°
Reaches altitude 10° 02:32:26 10° 350° (N) 2,409 5.2 -12.0°
Maximum altitude 02:36:39 25° 297° (WNW) 1,607 3.5 -11.6°
Enters shadow 02:40:32 12° 247° (WSW) 2,295 3.9 -11.1°
